Grafton, IL

12:04 AM CST on January 18, 2017 (GMT -0600)
Saint Charles County Smartt

Weather History for KSET - February, 2013

Change the Weather History Date:

Friday, February 15, 2013

  Actual Average (KSTL) Record (KSTL)
Temperature  
Mean Temperature 34 °F -  
Max Temperature 39 °F 42 °F 75 °F (1976)
Min Temperature 27 °F 25 °F -4 °F (1905)
Degree Days  
Heating Degree Days 32    
Moisture  
Dew Point 18 °F    
Average Humidity 55    
Maximum Humidity 75    
Minimum Humidity 32    
Precipitation  
Precipitation 0.00 in - - ()
Sea Level Pressure  
Sea Level Pressure 30.22 in    
Wind  
Wind Speed 9 mph (NW)    
Max Wind Speed 18 mph    
Max Gust Speed 24 mph    
Visibility 10 miles    
Events      
Averages and records for this station are not official NWS values.
T = Trace of Precipitation, MM = Missing Value Source: NWS Daily Summary

Daily Weather History Graph

Daily Weather History Graph

Search for Another Location

Airport or City:

Trip Planner

Search our weather history database for the weather conditions in past years. The results will help you decide how hot, cold, wet, or windy it might be!

Date:

Astronomy

Feb. 15, 2013 Rise Set
Actual Time 6:52 AM CST 5:39 PM CST
Civil Twilight 6:25 AM CST 6:06 PM CST
Nautical Twilight 5:54 AM CST 6:38 PM CST
Astronomical Twilight 5:23 AM CST 7:09 PM CST
Moon 9:32 AM CST (2/15) 11:36 PM CST (2/15)
Length of Visible Light 11h 41m
Length of Day
10h 46m
Waxing Crescent, 30% of the Moon is Illuminated
Feb 15
Waxing Crescent
Feb 17
First Quarter
Feb 25
Full
Mar 4
Last Quarter
Mar 11
New

Hourly Weather History & Observations

Time (CST) Temp. Windchill Dew Point Humidity Pressure Visibility Wind Dir Wind Speed Gust Speed Precip Events Conditions
12:54 AM 39.0 °F 35.7 °F 25.0 °F 57% 30.08 in 10.0 mi WNW 4.6 mph - N/A   Mostly Cloudy
1:54 AM 37.0 °F 31.0 °F 25.0 °F 62% 30.09 in 10.0 mi NW 8.1 mph - N/A   Clear
2:54 AM 36.0 °F 29.6 °F 26.1 °F 67% 30.12 in 10.0 mi NNW 8.1 mph - N/A   Clear
3:54 AM 34.0 °F 25.5 °F 26.1 °F 73% 30.13 in 10.0 mi NNW 11.5 mph 18.4 mph N/A   Clear
4:54 AM 32.0 °F 24.8 °F 25.0 °F 75% 30.15 in 10.0 mi NW 8.1 mph - N/A   Clear
5:54 AM 32.0 °F 23.6 °F 24.1 °F 73% 30.18 in 10.0 mi NW 10.4 mph - N/A   Clear
6:54 AM 30.9 °F 21.7 °F 21.9 °F 69% 30.21 in 10.0 mi NW 11.5 mph - N/A   Overcast
7:13 AM 30.2 °F 19.3 °F 21.2 °F 69% 30.22 in 10.0 mi NW 15.0 mph 20.7 mph N/A   Overcast
7:54 AM 30.0 °F 17.9 °F 19.0 °F 64% 30.25 in 10.0 mi NW 18.4 mph 24.2 mph N/A   Mostly Cloudy
8:54 AM 30.0 °F 19.1 °F 19.0 °F 64% 30.28 in 10.0 mi NW 15.0 mph - N/A   Partly Cloudy
9:54 AM 32.0 °F 22.1 °F 15.1 °F 50% 30.29 in 10.0 mi NW 13.8 mph - N/A   Clear
11:54 AM 35.1 °F 26.9 °F 12.9 °F 40% 30.28 in 10.0 mi WNW 11.5 mph 20.7 mph N/A   Clear
12:54 PM 36.0 °F 27.5 °F 12.9 °F 39% 30.26 in 10.0 mi WNW 12.7 mph - N/A   Clear
1:54 PM 37.0 °F 29.8 °F 12.0 °F 36% 30.25 in 10.0 mi NW 10.4 mph - N/A   Clear
2:54 PM 39.0 °F 31.0 °F 10.9 °F 32% 30.25 in 10.0 mi NNW 13.8 mph - N/A   Clear
3:54 PM 39.0 °F 33.4 °F 12.9 °F 34% 30.25 in 10.0 mi NNW 8.1 mph - N/A   Clear
4:54 PM 37.0 °F 33.3 °F 12.9 °F 37% 30.25 in 10.0 mi WNW 4.6 mph - N/A   Clear
5:54 PM 34.0 °F 27.2 °F 14.0 °F 44% 30.26 in 10.0 mi WNW 8.1 mph - N/A   Partly Cloudy
6:54 PM 32.0 °F 25.6 °F 15.1 °F 50% 30.26 in 10.0 mi WNW 6.9 mph - N/A   Clear
7:54 PM 32.0 °F - 15.1 °F 50% 30.25 in 10.0 mi Calm Calm - N/A   Mostly Cloudy
8:54 PM 32.0 °F 26.4 °F 18.0 °F 56% 30.26 in 10.0 mi West 5.8 mph - N/A   Overcast
9:54 PM 30.9 °F 19.4 °F 15.1 °F 52% 30.26 in 10.0 mi NNW 17.3 mph 23.0 mph N/A   Overcast
10:54 PM 28.0 °F 20.0 °F 15.1 °F 58% 30.26 in 10.0 mi North 8.1 mph - N/A   Clear
11:54 PM 27.0 °F 18.7 °F 14.0 °F 58% 30.25 in 10.0 mi NNW 8.1 mph - N/A   Clear